FW8327 Weather Reports


Display with metric or nautical units.
time (UTC)temp
F
wind
direction
speed
MPH
gust
MPH
rain 1hr
in
rain 24hr
in
rain mn
in
humidity
%
barometer
mb
20260505102119 55 135 0.0 0.0 0.00 0.00 0.00 99 1004.6
20260505101618 55 152 0.0 0.0 0.00 0.00 0.00 99 1004.5
20260505101114 55 139 0.0 0.0 0.00 0.00 0.00 99 1004.4
20260505100610 54 155 0.0 0.0 0.00 0.00 0.00 99 1004.2
20260505100107 54 154 0.0 0.0 0.00 0.00 0.00 99 1004.0
20260505095603 55 164 0.0 0.0 0.00 0.00 0.00 99 1003.9
20260505095100 55 147 0.0 0.0 0.00 0.00 0.00 99 1003.9
20260505094556 55 171 0.0 0.0 0.00 0.00 0.00 99 1003.7
20260505094053 55 152 0.0 0.0 0.00 0.00 0.00 99 1003.8
20260505093549 55 158 0.0 0.0 0.00 0.00 0.00 99 1003.6
20260505093047 55 172 0.0 0.0 0.00 0.00 0.00 99 1003.6
20260505092544 55 157 0.0 0.0 0.00 0.00 0.00 99 1003.4
20260505092042 55 158 0.0 0.0 0.00 0.00 0.00 99 1003.5
20260505091539 55 146 0.0 0.0 0.00 0.00 0.00 99 1003.3
20260505091037 55 160 0.0 0.0 0.00 0.00 0.00 99 1003.3
20260505090535 55 209 0.0 0.0 0.00 0.00 0.00 99 1003.0
20260505090032 55 151 0.0 0.0 0.00 0.00 0.00 99 1002.8
20260505085530 55 164 0.0 0.0 0.00 0.00 0.00 99 1002.8
20260505085028 55 189 0.0 0.0 0.00 0.00 0.00 99 1002.8
20260505084526 55 146 0.0 0.0 0.00 0.00 0.00 99 1002.7
20260505084024 55 139 0.0 0.0 0.00 0.00 0.00 99 1002.2
20260505083521 55 138 0.0 0.0 0.00 0.00 0.00 99 1002.5
20260505083017 55 122 0.0 0.0 0.00 0.00 0.00 99 1002.5
20260505082513 55 172 1.0 3.0 0.00 0.00 0.00 99 1002.5
20260505082010 55 164 0.0 0.0 0.00 0.00 0.00 99 1002.4
20260505081506 55 92 0.0 0.0 0.00 0.00 0.00 99 1001.3
20260505081003 55 122 0.0 0.0 0.00 0.00 0.00 99 1002.5
20260505080500 55 168 0.0 1.0 0.00 0.00 0.00 99 1003.0
20260505075955 55 166 2.0 9.0 0.00 0.00 0.00 99 1003.0
20260505075452 55 179 0.0 1.0 0.00 0.00 0.00 99 1003.4
20260505074949 55 151 2.0 3.0 0.00 0.00 0.00 99 1002.7
20260505074447 55 149 1.0 4.0 0.00 0.00 0.00 99 1003.0
20260505073944 55 161 0.0 0.0 0.00 0.00 0.00 99 1005.2
20260505073441 55 99 0.0 1.0 0.00 0.00 0.00 99 1005.1
20260505072938 55 163 0.0 0.0 0.00 0.00 0.00 99 1004.7
20260505072434 55 187 0.0 1.0 0.00 0.00 0.00 99 1004.0
20260505071931 55 146 0.0 1.0 0.00 0.00 0.00 99 1004.0
20260505071427 55 155 0.0 0.0 0.00 0.00 0.00 99 1004.4
20260505070925 55 154 0.0 0.0 0.00 0.00 0.00 99 1004.4
20260505070421 55 170 0.0 0.0 0.00 0.00 0.00 99 1004.4
20260505065917 55 162 0.0 0.0 0.00 0.00 0.00 99 1004.1
20260505065414 55 158 0.0 0.0 0.00 0.00 0.00 99 1004.6
20260505064910 55 158 0.0 0.0 0.00 0.00 0.00 99 1004.6
20260505064408 55 157 0.0 0.0 0.00 0.00 0.00 99 1004.9
20260505063906 55 163 0.0 0.0 0.00 0.00 0.00 99 1004.8
20260505063402 55 163 0.0 0.0 0.00 0.00 0.00 99 1004.8
20260505062859 55 159 0.0 0.0 0.00 0.00 0.00 99 1004.8
20260505062356 56 150 0.0 0.0 0.00 0.00 0.00 99 1005.2
20260505061852 56 158 0.0 0.0 0.00 0.00 0.00 99 1005.3
20260505061351 56 162 0.0 0.0 0.00 0.00 0.00 99 1005.6
20260505060848 56 170 0.0 0.0 0.00 0.00 0.00 99 1005.4
20260505060344 56 207 0.0 0.0 0.00 0.00 0.00 98 1005.5
20260505055841 56 178 0.0 0.0 0.00 0.00 0.00 98 1005.4
20260505055336 56 178 0.0 0.0 0.00 0.00 0.00 97 1005.5
20260505054834 56 180 0.0 0.0 0.00 0.00 0.00 97 1005.5
20260505054331 56 190 0.0 0.0 0.00 0.00 0.00 96 1005.4
20260505053829 57 218 0.0 0.0 0.00 0.00 0.00 95 1005.5
20260505053326 57 251 1.0 2.0 0.00 0.00 0.00 94 1005.9
20260505052823 57 262 0.0 2.0 0.00 0.00 0.00 93 1005.8
20260505052320 58 282 1.0 2.0 0.00 0.00 0.00 91 1005.7
20260505051817 59 275 4.0 6.0 0.00 0.00 0.00 88 1005.4
20260505051314 59 276 9.0 14.0 0.00 0.00 0.00 86 1005.3
20260505050812 61 318 4.0 6.0 0.00 0.00 0.00 83 1004.8
20260505050311 62 320 4.0 4.0 0.00 0.00 0.00 79 1004.3
20260505041740 68 165 0.0 0.0 0.00 0.00 0.00 59 1001.3
20260505041237 67 184 0.0 1.0 0.00 0.00 0.00 59 1001.2
20260505040735 67 154 0.0 0.0 0.00 0.00 0.00 60 1001.1
20260505040232 67 158 0.0 0.0 0.00 0.00 0.00 60 1001.3
20260505035729 67 283 0.0 0.0 0.00 0.00 0.00 61 1001.2
20260505035225 67 156 0.0 0.0 0.00 0.00 0.00 61 1001.3
20260505034722 67 147 0.0 0.0 0.00 0.00 0.00 60 1001.2
20260505034219 67 175 0.0 0.0 0.00 0.00 0.00 61 1001.1
20260505033715 67 119 0.0 0.0 0.00 0.00 0.00 62 1001.3
20260505033213 67 247 0.0 0.0 0.00 0.00 0.00 61 1001.3
20260505032711 67 154 0.0 0.0 0.00 0.00 0.00 62 1001.3
20260505032206 67 150 0.0 0.0 0.00 0.00 0.00 61 1001.4
20260505031704 67 175 0.0 0.0 0.00 0.00 0.00 62 1001.5
20260505031200 68 226 0.0 0.0 0.00 0.00 0.00 61 1001.4
20260505030657 67 142 0.0 0.0 0.00 0.00 0.00 62 1001.5
20260505030153 68 162 0.0 0.0 0.00 0.00 0.00 62 1001.5
20260505025649 68 176 0.0 0.0 0.00 0.00 0.00 62 1001.4
20260505025148 68 143 0.0 0.0 0.00 0.00 0.00 62 1001.7
20260505024645 68 173 0.0 0.0 0.00 0.00 0.00 62 1001.6
20260505024142 68 157 0.0 0.0 0.00 0.00 0.00 62 1001.9
20260505023640 68 156 0.0 0.0 0.00 0.00 0.00 62 1001.7
20260505023137 68 159 0.0 0.0 0.00 0.00 0.00 62 1001.8
20260505022634 68 166 0.0 0.0 0.00 0.00 0.00 62 1001.7
20260505022131 68 142 0.0 0.0 0.00 0.00 0.00 62 1001.7
20260505021628 68 163 0.0 0.0 0.00 0.00 0.00 62 1001.8
20260505021125 68 158 0.0 0.0 0.00 0.00 0.00 62 1001.8
20260505020620 68 158 0.0 0.0 0.00 0.00 0.00 62 1001.7
20260505020116 68 147 0.0 0.0 0.00 0.00 0.00 62 1001.9
20260505015614 68 146 0.0 0.0 0.00 0.00 0.00 62 1001.7
20260505015110 68 134 0.0 0.0 0.00 0.00 0.00 61 1001.6
20260505014607 68 149 0.0 0.0 0.00 0.00 0.00 61 1001.4
20260505014104 68 141 0.0 0.0 0.00 0.00 0.00 62 1001.5
20260505013601 68 198 0.0 0.0 0.00 0.00 0.00 61 1001.4
20260505013059 68 260 0.0 0.0 0.00 0.00 0.00 61 1001.3
20260505012556 69 146 0.0 0.0 0.00 0.00 0.00 60 1001.5
20260505012053 69 167 0.0 0.0 0.00 0.00 0.00 60 1001.2
20260505011549 69 151 0.0 0.0 0.00 0.00 0.00 59 1001.1
20260505011046 69 142 0.0 0.0 0.00 0.00 0.00 59 1001.1
20260505010542 69 163 0.0 0.0 0.00 0.00 0.00 59 1001.3
20260505010038 69 143 0.0 0.0 0.00 0.00 0.00 58 1000.9
20260505005535 69 168 0.0 0.0 0.00 0.00 0.00 58 1000.9
20260505005032 69 177 0.0 0.0 0.00 0.00 0.00 57 1000.7
20260505004529 70 142 0.0 0.0 0.00 0.00 0.00 56 1000.6
20260505004026 70 176 0.0 0.0 0.00 0.00 0.00 55 1000.7
20260505003523 70 165 0.0 0.0 0.00 0.00 0.00 55 1000.7
20260505003020 71 174 0.0 0.0 0.00 0.00 0.00 55 1000.7
20260505002520 71 7 0.0 0.0 0.00 0.00 0.00 54 1000.5
20260505002015 71 160 0.0 0.0 0.00 0.00 0.00 54 1000.5
20260505001512 71 198 0.0 0.0 0.00 0.00 0.00 55 1000.5
20260505001009 71 157 0.0 0.0 0.00 0.00 0.00 55 1000.4
20260505000506 71 137 0.0 0.0 0.00 0.00 0.00 53 1000.4
20260505000004 72 155 0.0 0.0 0.00 0.00 0.00 53 1000.4
20260504235500 73 133 0.0 0.0 0.00 0.00 0.00 52 1000.6
20260504234956 73 116 0.0 2.0 0.00 0.00 0.00 50 1000.7
20260504234454 73 194 0.0 0.0 0.00 0.00 0.00 50 1000.5
20260504233950 74 158 1.0 2.0 0.00 0.00 0.00 50 1000.9
20260504233446 74 196 1.0 2.0 0.00 0.00 0.00 50 1001.1
20260504232943 73 164 0.0 0.0 0.00 0.00 0.00 50 1001.2
20260504232440 73 92 0.0 0.0 0.00 0.00 0.00 50 1001.2
20260504231938 73 219 4.0 8.0 0.00 0.00 0.00 49 1001.2
20260504231433 73 160 0.0 0.0 0.00 0.00 0.00 52 1001.4
20260504230930 73 191 0.0 0.0 0.00 0.00 0.00 55 1001.5
20260504230427 73 235 1.0 3.0 0.00 0.00 0.00 56 1001.8
20260504225926 73 258 1.0 4.0 0.00 0.00 0.00 58 1001.6
20260504225422 73 121 0.0 0.0 0.00 0.00 0.00 58 1001.7
20260504224920 73 177 0.0 0.0 0.00 0.00 0.00 59 1001.8
20260504224416 73 151 0.0 0.0 0.00 0.00 0.00 59 1001.6
20260504223913 74 224 0.0 1.0 0.00 0.00 0.00 60 1001.6
20260504223408 74 161 0.0 1.0 0.00 0.00 0.00 61 1001.7
20260504222905 73 170 0.0 0.0 0.00 0.00 0.00 62 1001.8
20260504222402 72 153 0.0 1.0 0.00 0.00 0.00 63 1001.8
20260504221900 73 112 0.0 1.0 0.00 0.00 0.00 64 1002.0
20260504221351 72 159 0.0 0.0 0.00 0.00 0.00 66 1001.9
20260504220848 71 129 0.0 0.0 0.00 0.00 0.00 66 1002.1
20260504220344 71 162 0.0 1.0 0.00 0.00 0.00 67 1002.0
20260504215842 71 158 1.0 2.0 0.00 0.00 0.00 68 1002.0
20260504215338 70 173 0.0 0.0 0.00 0.00 0.00 68 1002.0
20260504214834 71 151 0.0 0.0 0.00 0.00 0.00 66 1001.9
20260504214331 71 125 0.0 0.0 0.00 0.00 0.00 63 1002.2
20260504213828 71 149 0.0 0.0 0.00 0.00 0.00 62 1002.1
20260504213324 71 200 0.0 0.0 0.00 0.00 0.00 61 1002.1
20260504212822 73 204 0.0 0.0 0.00 0.00 0.00 60 1002.1
20260504212317 73 220 0.0 0.0 0.00 0.00 0.00 59 1002.0
20260504211815 72 175 0.0 0.0 0.00 0.00 0.00 59 1002.5
20260504211311 72 166 0.0 0.0 0.00 0.00 0.00 59 1002.6
20260504210809 73 269 1.0 3.0 0.00 0.00 0.00 56 1002.5
20260504210306 72 185 0.0 0.0 0.00 0.00 0.00 57 1002.4
20260504205803 72 157 0.0 0.0 0.00 0.00 0.00 58 1002.6
20260504205301 72 169 0.0 0.0 0.00 0.00 0.00 58 1002.7
20260504204759 71 200 0.0 2.0 0.00 0.00 0.00 58 1002.5
20260504204257 71 201 0.0 0.0 0.00 0.00 0.00 58 1002.6
20260504203756 71 157 0.0 0.0 0.00 0.00 0.00 59 1002.6
20260504203253 72 274 0.0 0.0 0.00 0.00 0.00 59 1002.5
20260504202753 73 109 0.0 0.0 0.00 0.00 0.00 58 1002.5
20260504202250 72 170 0.0 2.0 0.00 0.00 0.00 57 1002.5
20260504201747 73 258 0.0 2.0 0.00 0.00 0.00 53 1002.5
20260504201244 73 139 0.0 0.0 0.00 0.00 0.00 54 1002.8
20260504200742 73 239 2.0 2.0 0.00 0.00 0.00 54 1002.7
20260504200238 73 200 0.0 1.0 0.00 0.00 0.00 55 1002.7
20260504195734 73 165 0.0 0.0 0.00 0.00 0.00 56 1002.7
20260504195230 73 262 0.0 1.0 0.00 0.00 0.00 54 1002.6
20260504194728 73 145 0.0 0.0 0.00 0.00 0.00 56 1002.7
20260504194223 73 220 1.0 2.0 0.00 0.00 0.00 55 1003.0
20260504193720 72 193 0.0 0.0 0.00 0.00 0.00 57 1003.5
20260504193218 72 184 0.0 0.0 0.00 0.00 0.00 56 1003.5
20260504192716 71 244 3.0 9.0 0.00 0.00 0.00 57 1003.4
20260504192214 72 221 0.0 1.0 0.00 0.00 0.00 56 1003.5
20260504191712 72 230 0.0 0.0 0.00 0.00 0.00 59 1003.2
20260504191209 71 263 1.0 3.0 0.00 0.00 0.00 57 1003.6
20260504190704 72 231 1.0 2.0 0.00 0.00 0.00 57 1003.7
20260504190200 72 176 0.0 0.0 0.00 0.00 0.00 59 1003.6
20260504185657 72 267 1.0 3.0 0.00 0.00 0.00 56 1003.7
20260504185153 73 231 0.0 1.0 0.00 0.00 0.00 55 1003.8
20260504184650 73 177 1.0 2.0 0.00 0.00 0.00 57 1003.7
20260504184145 72 198 0.0 2.0 0.00 0.00 0.00 56 1003.8
20260504183642 72 167 1.0 2.0 0.00 0.00 0.00 55 1003.8
20260504183139 72 185 0.0 1.0 0.00 0.00 0.00 57 1003.7
20260504182637 72 243 1.0 4.0 0.00 0.00 0.00 55 1003.6
20260504182129 73 162 1.0 2.0 0.00 0.00 0.00 55 1003.5
20260504181626 74 294 0.0 1.0 0.00 0.00 0.00 54 1003.3
20260504181124 74 224 3.0 7.0 0.00 0.00 0.00 55 1003.6
20260504180623 73 120 0.0 1.0 0.00 0.00 0.00 54 1003.3
20260504180121 73 225 2.0 4.0 0.00 0.00 0.00 52 1003.2
20260504175618 74 195 0.0 3.0 0.00 0.00 0.00 51 1003.2
20260504175114 74 188 1.0 4.0 0.00 0.00 0.00 52 1003.2
20260504174613 74 201 0.0 2.0 0.00 0.00 0.00 55 1003.4
20260504174109 74 166 0.0 0.0 0.00 0.00 0.00 57 1003.4
20260504173606 73 126 0.0 2.0 0.00 0.00 0.00 56 1003.4
20260504173104 73 147 0.0 1.0 0.00 0.00 0.00 55 1003.6
20260504172600 73 182 0.0 1.0 0.00 0.00 0.00 55 1003.4
20260504172056 73 209 1.0 1.0 0.00 0.00 0.00 57 1003.4
20260504171553 72 204 0.0 0.0 0.00 0.00 0.00 58 1003.5
20260504171050 73 217 0.0 0.0 0.00 0.00 0.00 58 1003.7
20260504170546 73 180 0.0 0.0 0.00 0.00 0.00 59 1003.5
20260504150930 68 155 0.0 0.0 0.00 0.00 0.00 66 1004.8
20260504150426 67 240 0.0 1.0 0.00 0.00 0.00 66 1004.9
20260504140853 64 195 0.0 0.0 0.00 0.00 0.00 71 1005.3
20260504140349 63 193 0.0 0.0 0.00 0.00 0.00 71 1005.4
20260504130818 60 152 0.0 0.0 0.00 0.00 0.00 75 1005.9
20260504130314 60 107 0.0 0.0 0.00 0.00 0.00 73 1005.7
20260504120237 52 174 0.0 0.0 0.00 0.00 0.00 81 1005.6
20260504110705 49 152 0.0 0.0 0.00 0.00 0.00 85 1005.8
20260504110201 49 146 0.0 0.0 0.00 0.00 0.00 84 1005.9